This demonstration page uses our WeatherBlox Daily Observations layout. Learn more.

Left ArrowRight Arrow

Hourly Observations for April 6, 2019

Temp ( °F °C ) Dew Point ( °F °C ) Humidity (%) Winds ( mph kmh ) Pressure ( in mb ) Visibility ( mi km ) Precip ( " mm )
12:15 am 00:15 Cloudy 41 5 41 5 100 100 NNE 3 6 30.25 1025 2 3 0.00 0.00
12:35 am 00:35 Cloudy 41 5 41 5 100 100 NNE 5 7 30.24 1024 2 3 0.00 0.00
12:55 am 00:55 Cloudy 41 5 41 5 100 100 N 5 7 30.24 1024 2 3 0.00 0.00
1:15 am 01:15 Cloudy 41 5 41 5 100 100 N 5 7 30.23 1024 1 2 0.00 0.00
1:35 am 01:35 Cloudy 41 5 41 5 100 100 N 6 9 30.23 1024 1 2 0.00 0.00
1:55 am 01:55 Cloudy 41 5 41 5 100 100 N 6 9 30.23 1024 1 2 0.00 0.00
2:15 am 02:15 Cloudy 41 5 41 5 100 100 N 7 11 30.22 1023 1 1 0.00 0.00
2:35 am 02:35 Cloudy 41 5 41 5 100 100 N 5 7 30.22 1023 1 2 0.00 0.00
2:55 am 02:55 Cloudy 41 5 41 5 100 100 NNE 6 9 30.22 1023 1 2 0.00 0.00
3:15 am 03:15 Cloudy 41 5 41 5 100 100 NNE 5 7 30.21 1023 2 3 0.00 0.00
3:35 am 03:35 Cloudy 41 5 41 5 100 100 NNE 6 9 30.21 1023 2 3 0.00 0.00
3:55 am 03:55 Cloudy 41 5 41 5 100 100 Calm 30.21 1023 2 3 0.00 0.00
4:15 am 04:15 Cloudy 41 5 41 5 100 100 NNE 5 7 30.20 1023 2 3 0.00 0.00
4:35 am 04:35 Cloudy 41 5 41 5 100 100 NNE 5 7 30.21 1023 3 4 0.00 0.00
4:55 am 04:55 Cloudy 41 5 41 5 100 100 NNE 5 7 30.21 1023 3 5 0.00 0.00
5:15 am 05:15 Cloudy 41 5 41 5 100 100 NNE 3 6 30.21 1023 3 5 0.00 0.00
5:35 am 05:35 Cloudy 41 5 41 5 100 100 NNE 3 6 30.22 1023 3 4 0.00 0.00
5:55 am 05:55 Cloudy 41 5 41 5 100 100 NNE 3 6 30.22 1023 2 3 0.00 0.00
6:15 am 06:15 Cloudy 41 5 41 5 100 100 NNE 5 7 30.22 1023 2 3 0.00 0.00
6:35 am 06:35 Cloudy 41 5 41 5 100 100 NNE 3 6 30.22 1023 2 2 0.00 0.00
6:55 am 06:55 Cloudy 41 5 41 5 100 100 N 5 7 30.23 1024 3 5 0.00 0.00
7:15 am 07:15 Cloudy 41 5 41 5 100 100 Calm 30.24 1024 2 3 0.00 0.00
7:35 am 07:35 Cloudy 41 5 41 5 100 100 NNE 3 6 30.24 1024 2 3 0.00 0.00
7:55 am 07:55 Cloudy 41 5 41 5 100 100 N 5 7 30.24 1024 3 4 0.00 0.00
8:15 am 08:15 Cloudy 43 6 43 6 100 100 N 3 6 30.25 1024 3 5 0.00 0.00
8:35 am 08:35 Cloudy 43 6 43 6 100 100 NNE 3 6 30.25 1024 3 5 0.00 0.00
8:55 am 08:55 Partly Cloudy 43 6 43 6 100 100 Calm 30.25 1024 4 6 0.00 0.00
9:15 am 09:15 Mostly Cloudy 45 7 43 6 93 93 NNE 3 6 30.25 1024 5 8 0.00 0.00
9:35 am 09:35 Partly Cloudy 45 7 43 6 93 93 N 5 7 30.25 1024 5 8 0.00 0.00
9:55 am 09:55 Sunny 46 8 45 7 93 93 N 3 6 30.24 1024 7 11 0.00 0.00
10:15 am 10:15 Sunny 50 10 45 7 82 82 Calm 30.25 1024 7 11 0.00 0.00
10:35 am 10:35 Sunny 50 10 46 8 88 88 Calm 30.25 1024 7 11 0.00 0.00
10:55 am 10:55 Sunny 52 11 46 8 82 82 NNE 3 6 30.25 1025 10 16 0.00 0.00
11:15 am 11:15 Sunny 54 12 46 8 77 77 NW 3 6 30.25 1024 10 16 0.00 0.00
11:35 am 11:35 Sunny 55 13 48 9 77 77 Calm 30.25 1024 10 16 0.00 0.00
11:55 am 11:55 Sunny 55 13 48 9 77 77 Calm 30.24 1024 10 16 0.00 0.00
12:15 pm 12:15 Sunny 57 14 50 10 77 77 Calm 30.24 1024 10 16 0.00 0.00
12:35 pm 12:35 Partly Cloudy 59 15 50 10 72 72 Calm 30.23 1024 10 16 0.00 0.00
12:55 pm 12:55 Mostly Cloudy 61 16 50 10 68 68 Calm 30.23 1024 10 16 0.00 0.00
1:15 pm 13:15 Partly Cloudy 61 16 50 10 68 68 NE 3 6 30.22 1023 10 16 0.00 0.00
1:35 pm 13:35 Sunny 61 16 50 10 68 68 NE 5 7 30.22 1023 10 16 0.00 0.00
1:55 pm 13:55 Sunny 63 17 50 10 64 64 ENE 3 6 30.22 1023 10 16 0.00 0.00
2:15 pm 14:15 Partly Cloudy 63 17 50 10 64 64 Calm 30.22 1023 10 16 0.00 0.00
2:35 pm 14:35 Partly Cloudy 63 17 50 10 64 64 Calm 30.22 1023 10 16 0.00 0.00
2:55 pm 14:55 Partly Cloudy 64 18 50 10 60 60 NE 3 6 30.20 1023 10 16 0.00 0.00
3:15 pm 15:15 Partly Cloudy 64 18 50 10 60 60 NE 6 9 30.21 1023 10 16 0.00 0.00
3:35 pm 15:35 Partly Cloudy 64 18 50 10 60 60 NNE 8 13 30.20 1023 10 16 0.00 0.00
3:55 pm 15:55 Mostly Cloudy 64 18 50 10 60 60 NNE 7 11 30.20 1023 10 16 0.00 0.00
4:15 pm 16:15 Mostly Cloudy 66 19 50 10 56 56 ENE 9 15 30.19 1022 10 16 0.00 0.00
4:35 pm 16:35 Mostly Cloudy 66 19 50 10 56 56 NE 3 6 30.19 1022 10 16 0.00 0.00
4:55 pm 16:55 Partly Cloudy 66 19 50 10 56 56 N 5 7 30.18 1022 10 16 0.00 0.00
5:15 pm 17:15 Partly Cloudy 66 19 46 8 49 49 NE 3 6 30.18 1022 10 16 0.00 0.00
5:35 pm 17:35 Sunny 66 19 48 9 52 52 NE 7 11 30.17 1022 10 16 0.00 0.00
5:55 pm 17:55 Sunny 68 20 46 8 46 46 NNE 5 7 30.17 1022 10 16 0.00 0.00
6:15 pm 18:15 Sunny 66 19 45 7 46 46 E 3 6 30.17 1022 10 16 0.00 0.00
6:35 pm 18:35 Sunny 66 19 48 9 52 52 Calm 30.17 1022 10 16 0.00 0.00
6:55 pm 18:55 Sunny 66 19 46 8 49 49 NNE 3 6 30.18 1022 10 16 0.00 0.00
7:15 pm 19:15 Sunny 64 18 46 8 52 52 Calm 30.19 1022 10 16 0.00 0.00
7:35 pm 19:35 Sunny 64 18 46 8 52 52 NE 5 7 30.19 1022 10 16 0.00 0.00
7:55 pm 19:55 Clear 63 17 46 8 56 56 NE 5 7 30.20 1023 10 16 0.00 0.00
8:15 pm 20:15 Clear 63 17 46 8 56 56 NNE 3 6 30.21 1023 10 16 0.00 0.00
8:35 pm 20:35 Clear 61 16 46 8 59 59 Calm 30.21 1023 10 16 0.00 0.00
8:55 pm 20:55 Clear 57 14 48 9 72 72 Calm 30.22 1023 10 16 0.00 0.00
9:15 pm 21:15 Clear 57 14 46 8 67 67 Calm 30.23 1024 10 16 0.00 0.00
9:35 pm 21:35 Clear 55 13 48 9 77 77 Calm 30.23 1024 10 16 0.00 0.00
9:55 pm 21:55 Clear 54 12 50 10 88 88 Calm 30.23 1024 10 16 0.00 0.00
10:15 pm 22:15 Clear 52 11 50 10 94 94 Calm 30.24 1024 10 16 0.00 0.00
10:35 pm 22:35 Clear 54 12 50 10 88 88 Calm 30.24 1024 10 16 0.00 0.00
10:55 pm 22:55 Clear 54 12 50 10 88 88 Calm 30.25 1024 10 16 0.00 0.00
11:15 pm 23:15 Clear 55 13 50 10 82 82 S 3 6 30.25 1024 10 16 0.00 0.00
11:35 pm 23:35 Partly Cloudy 52 11 48 9 88 88 Calm 30.25 1025 10 16 0.00 0.00
11:55 pm 23:55 Mostly Cloudy 55 13 50 10 82 82 Calm 30.26 1025 10 16 0.00 0.00

Powered by AerisWeather